SJX235 RCTP-VHHH

Flight info

Callsign SJX235
Flight time 1h 21m
Altitude 36000
Route CHALI1A CHALI T3 MKG A1 ELATO V522 ABBEY
Aircraft A35K/H-SDE2E3GHIJ3J4J5LM1ORWXY/LB1D1

Departure

Time 2026-05-06 02:08
Airport Taiwan Taoyuan International Airport (RCTP)

Arrival

Time 2026-05-06 03:30
Airport Hong Kong International Airport (VHHH)
Time Latitude Longitude Altitude Speed Heading
2026-05-06 01:56 25.07279 121.23395 106 ft 0 kts 319°
2026-05-06 02:01 25.07273 121.23401 106 ft 3 kts 319°
2026-05-06 02:01 25.07253 121.23421 105 ft 2 kts 319°
2026-05-06 02:02 25.07245 121.23428 103 ft 3 kts 315°
2026-05-06 02:02 25.07231 121.23447 103 ft 3 kts 287°
2026-05-06 02:02 25.07228 121.23458 104 ft 3 kts 270°
2026-05-06 02:02 25.07230 121.23476 104 ft 3 kts 248°
2026-05-06 02:03 25.07241 121.23501 104 ft 3 kts 233°
2026-05-06 02:03 25.07243 121.23504 103 ft 0 kts 232°
2026-05-06 02:03 25.07236 121.23495 103 ft 4 kts 228°
2026-05-06 02:04 25.07202 121.23453 104 ft 10 kts 229°
2026-05-06 02:04 25.07141 121.23377 105 ft 16 kts 229°
2026-05-06 02:04 25.07058 121.23271 106 ft 21 kts 229°
2026-05-06 02:04 25.06957 121.23141 105 ft 23 kts 229°
2026-05-06 02:05 25.06849 121.23004 105 ft 25 kts 229°
2026-05-06 02:05 25.06770 121.22904 105 ft 13 kts 229°
2026-05-06 02:05 25.06704 121.22820 105 ft 16 kts 229°
2026-05-06 02:05 25.06622 121.22718 105 ft 19 kts 229°
2026-05-06 02:06 25.06527 121.22597 105 ft 22 kts 229°
2026-05-06 02:06 25.06422 121.22463 106 ft 24 kts 228°
2026-05-06 02:06 25.06312 121.22325 106 ft 24 kts 229°
2026-05-06 02:06 25.06194 121.22263 105 ft 19 kts 158°
2026-05-06 02:07 25.06107 121.22365 104 ft 17 kts 105°
2026-05-06 02:07 25.06137 121.22422 102 ft 8 kts 43°
2026-05-06 02:07 25.06178 121.22475 104 ft 11 kts 49°
2026-05-06 02:07 25.06337 121.22676 101 ft 66 kts 49°
2026-05-06 02:08 25.06773 121.23228 102 ft 123 kts 49°
2026-05-06 02:08 25.07448 121.24083 130 ft 168 kts 47°
2026-05-06 02:08 25.08214 121.25037 770 ft 166 kts 47°
2026-05-06 02:08 25.08975 121.26021 1330 ft 176 kts 49°
2026-05-06 02:09 25.09820 121.27114 1574 ft 199 kts 49°
2026-05-06 02:09 25.10962 121.28065 1890 ft 214 kts 21°
2026-05-06 02:09 25.12457 121.28188 2309 ft 228 kts 345°
2026-05-06 02:09 25.13892 121.27306 2575 ft 249 kts 320°
2026-05-06 02:10 25.15221 121.26018 3144 ft 257 kts 317°
2026-05-06 02:10 25.16570 121.24695 3835 ft 261 kts 317°
2026-05-06 02:10 25.17957 121.23363 4502 ft 266 kts 317°
2026-05-06 02:10 25.19370 121.22023 5169 ft 270 kts 317°
2026-05-06 02:11 25.20773 121.20700 5890 ft 270 kts 316°
2026-05-06 02:11 25.22201 121.19361 6685 ft 269 kts 316°
2026-05-06 02:11 25.23633 121.18021 7405 ft 271 kts 315°
2026-05-06 02:11 25.25077 121.16669 8134 ft 273 kts 315°
2026-05-06 02:12 25.26456 121.15224 8891 ft 272 kts 305°
2026-05-06 02:12 25.27356 121.13425 9657 ft 266 kts 283°
2026-05-06 02:12 25.27538 121.11415 10338 ft 266 kts 263°
2026-05-06 02:12 25.26975 121.09412 10628 ft 285 kts 240°
2026-05-06 02:13 25.25611 121.07731 10884 ft 306 kts 221°
2026-05-06 02:13 25.23993 121.06106 11126 ft 323 kts 228°
2026-05-06 02:13 25.22433 121.04236 11391 ft 338 kts 230°
2026-05-06 02:13 25.20860 121.02269 11831 ft 346 kts 231°
2026-05-06 02:14 25.19225 121.00293 12380 ft 351 kts 227°
2026-05-06 02:14 25.17448 120.98418 12942 ft 356 kts 225°
2026-05-06 02:14 25.15635 120.96541 13492 ft 360 kts 225°
2026-05-06 02:14 25.13810 120.94631 14001 ft 364 kts 226°
2026-05-06 02:15 25.11968 120.92687 14439 ft 368 kts 226°
2026-05-06 02:15 25.10122 120.90707 14873 ft 373 kts 227°
2026-05-06 02:15 25.08252 120.88691 15310 ft 377 kts 227°
2026-05-06 02:15 25.06389 120.86682 15741 ft 382 kts 227°
2026-05-06 02:16 25.04481 120.84626 16184 ft 386 kts 227°
2026-05-06 02:16 25.02524 120.82518 16629 ft 390 kts 227°
2026-05-06 02:16 25.00599 120.80445 17051 ft 394 kts 227°
2026-05-06 02:16 24.98624 120.78319 17490 ft 399 kts 227°
2026-05-06 02:17 24.96630 120.76175 17931 ft 403 kts 228°
2026-05-06 02:17 24.94616 120.74009 18347 ft 407 kts 228°
2026-05-06 02:17 24.92581 120.71823 18741 ft 410 kts 228°
2026-05-06 02:17 24.90535 120.69627 19160 ft 412 kts 228°
2026-05-06 02:18 24.88478 120.67419 19608 ft 414 kts 228°
2026-05-06 02:18 24.86412 120.65204 20053 ft 416 kts 228°
2026-05-06 02:18 24.84334 120.62975 20503 ft 418 kts 229°
2026-05-06 02:18 24.82247 120.60738 20949 ft 420 kts 229°
2026-05-06 02:19 24.80145 120.58487 21391 ft 423 kts 229°
2026-05-06 02:19 24.78030 120.56222 21855 ft 425 kts 229°
2026-05-06 02:19 24.75904 120.53947 22282 ft 428 kts 229°
2026-05-06 02:19 24.73748 120.51679 22716 ft 432 kts 227°
2026-05-06 02:20 24.68930 120.47601 23592 ft 441 kts 220°
2026-05-06 02:20 24.66390 120.45672 23937 ft 446 kts 219°
2026-05-06 02:20 24.63810 120.43754 24269 ft 449 kts 219°
2026-05-06 02:21 24.61208 120.41828 24606 ft 453 kts 219°
2026-05-06 02:21 24.58586 120.39879 24981 ft 456 kts 219°
2026-05-06 02:21 24.55953 120.37910 25346 ft 460 kts 219°
2026-05-06 02:21 24.53302 120.35916 25722 ft 463 kts 220°
2026-05-06 02:22 24.50633 120.33903 26104 ft 467 kts 220°
2026-05-06 02:22 24.47950 120.31877 26473 ft 470 kts 220°
2026-05-06 02:22 24.45244 120.29833 26856 ft 474 kts 220°
2026-05-06 02:22 24.42530 120.27764 27220 ft 477 kts 220°
2026-05-06 02:23 24.39811 120.25653 27593 ft 480 kts 220°
2026-05-06 02:23 24.37081 120.23517 27963 ft 484 kts 220°
2026-05-06 02:23 24.34334 120.21368 28321 ft 487 kts 220°
2026-05-06 02:23 24.31560 120.19201 28676 ft 491 kts 220°
2026-05-06 02:24 24.28770 120.17029 29028 ft 494 kts 220°
2026-05-06 02:24 24.25956 120.14843 29369 ft 497 kts 220°
2026-05-06 02:24 24.23121 120.12645 29706 ft 501 kts 220°
2026-05-06 02:24 24.20268 120.10436 30038 ft 504 kts 220°
2026-05-06 02:25 24.17395 120.08214 30318 ft 507 kts 220°
2026-05-06 02:25 24.14511 120.05987 30640 ft 508 kts 220°
2026-05-06 02:25 24.11617 120.03761 30960 ft 509 kts 220°
2026-05-06 02:25 24.08717 120.01523 31276 ft 510 kts 220°
2026-05-06 02:26 24.05814 119.99280 31587 ft 512 kts 220°
2026-05-06 02:26 24.02912 119.97038 31996 ft 510 kts 220°
2026-05-06 02:26 24.00019 119.94809 32475 ft 507 kts 220°
2026-05-06 02:26 23.97184 119.92628 32927 ft 504 kts 220°
2026-05-06 02:27 23.94323 119.90427 33372 ft 502 kts 221°
2026-05-06 02:27 23.91475 119.88234 33790 ft 500 kts 221°
2026-05-06 02:27 23.88639 119.86051 34195 ft 497 kts 221°
2026-05-06 02:27 23.85781 119.83853 34583 ft 494 kts 221°
2026-05-06 02:28 23.83014 119.81728 34979 ft 491 kts 221°
2026-05-06 02:28 23.80231 119.79591 35346 ft 488 kts 221°
2026-05-06 02:28 23.77458 119.77463 35692 ft 486 kts 221°
2026-05-06 02:28 23.74697 119.75344 35956 ft 486 kts 221°
2026-05-06 02:29 23.71921 119.73212 36018 ft 490 kts 221°
2026-05-06 02:29 23.66336 119.68927 36023 ft 491 kts 221°
2026-05-06 02:30 23.60916 119.64468 36026 ft 483 kts 229°
2026-05-06 02:30 23.56725 119.58901 36024 ft 472 kts 241°
2026-05-06 02:31 23.53172 119.52894 36026 ft 471 kts 243°
2026-05-06 02:31 23.49720 119.46848 36020 ft 472 kts 243°
2026-05-06 02:32 23.46238 119.40784 36021 ft 472 kts 243°
2026-05-06 02:32 23.42727 119.34728 36015 ft 473 kts 243°
2026-05-06 02:33 23.39212 119.28691 36010 ft 473 kts 242°
2026-05-06 02:33 23.38041 119.26682 36008 ft 473 kts 242°
2026-05-06 02:34 23.32162 119.16603 36011 ft 473 kts 242°
2026-05-06 02:34 23.28639 119.10572 36013 ft 473 kts 242°
2026-05-06 02:35 23.25107 119.04531 36010 ft 473 kts 242°
2026-05-06 02:35 23.21579 118.98504 36014 ft 473 kts 242°
2026-05-06 02:36 23.18042 118.92470 36010 ft 473 kts 242°
2026-05-06 02:36 23.14511 118.86451 36012 ft 473 kts 242°
2026-05-06 02:37 23.10970 118.80425 36011 ft 472 kts 242°
2026-05-06 02:37 23.07473 118.74480 36012 ft 472 kts 242°
2026-05-06 02:38 23.03941 118.68481 36013 ft 472 kts 242°
2026-05-06 02:38 23.00407 118.62487 36011 ft 472 kts 242°
2026-05-06 02:39 22.96844 118.56450 36013 ft 471 kts 242°
2026-05-06 02:39 22.93327 118.50500 36013 ft 471 kts 242°
2026-05-06 02:40 22.89768 118.44522 36011 ft 471 kts 241°
2026-05-06 02:40 22.86211 118.38559 36012 ft 470 kts 241°
2026-05-06 02:41 22.82665 118.32616 36010 ft 470 kts 242°
2026-05-06 02:41 22.79117 118.26672 36011 ft 469 kts 242°
2026-05-06 02:42 22.75570 118.20736 36012 ft 469 kts 242°
2026-05-06 02:42 22.72023 118.14805 36012 ft 469 kts 242°
2026-05-06 02:43 22.68476 118.08883 36012 ft 468 kts 242°
2026-05-06 02:43 22.64931 118.02971 36018 ft 468 kts 241°
2026-05-06 02:44 22.61373 117.97045 36025 ft 468 kts 241°
2026-05-06 02:44 22.57841 117.91137 36020 ft 468 kts 242°
2026-05-06 02:45 22.54327 117.85212 36002 ft 468 kts 242°
2026-05-06 02:45 22.50806 117.79283 36010 ft 468 kts 242°
2026-05-06 02:46 22.47289 117.73374 36003 ft 468 kts 242°
2026-05-06 02:46 22.44365 117.68470 36009 ft 468 kts 241°
2026-05-06 02:47 22.40832 117.62549 36002 ft 468 kts 241°
2026-05-06 02:47 22.36695 117.55625 36001 ft 469 kts 241°
2026-05-06 02:48 22.34282 117.50467 36008 ft 461 kts 254°
2026-05-06 02:48 22.33194 117.43721 36003 ft 455 kts 269°
2026-05-06 02:49 22.33024 117.36871 36005 ft 456 kts 271°
2026-05-06 02:49 22.32950 117.30014 36008 ft 457 kts 271°
2026-05-06 02:50 22.32853 117.23159 36011 ft 457 kts 271°
2026-05-06 02:50 22.32728 117.16292 36004 ft 457 kts 270°
2026-05-06 02:51 22.32594 117.09431 36005 ft 458 kts 270°
2026-05-06 02:51 22.32456 117.02541 36007 ft 458 kts 270°
2026-05-06 02:52 22.32316 116.95653 36009 ft 459 kts 270°
2026-05-06 02:52 22.32174 116.88775 36008 ft 459 kts 270°
2026-05-06 02:53 22.32029 116.81887 36006 ft 459 kts 270°
2026-05-06 02:53 22.31881 116.74979 36009 ft 460 kts 270°
2026-05-06 02:54 22.31730 116.68073 36009 ft 460 kts 270°
2026-05-06 02:54 22.31576 116.61182 36015 ft 460 kts 270°
2026-05-06 02:55 22.31418 116.54264 36007 ft 460 kts 270°
2026-05-06 02:55 22.31258 116.47337 36007 ft 461 kts 270°
2026-05-06 02:56 22.31094 116.40416 36007 ft 461 kts 270°
2026-05-06 02:56 22.30928 116.33494 36005 ft 461 kts 270°
2026-05-06 02:56 22.30844 116.30042 35792 ft 457 kts 270°
2026-05-06 02:57 22.30759 116.26621 35312 ft 454 kts 270°
2026-05-06 02:57 22.30675 116.23213 34683 ft 455 kts 270°
2026-05-06 02:57 22.30590 116.19785 34013 ft 457 kts 270°
2026-05-06 02:57 22.30505 116.16345 33207 ft 460 kts 270°
2026-05-06 02:58 22.30418 116.12871 32379 ft 465 kts 269°
2026-05-06 02:58 22.30330 116.09379 31696 ft 466 kts 269°
2026-05-06 02:58 22.30240 116.05887 31135 ft 464 kts 269°
2026-05-06 02:58 22.30149 116.02411 30609 ft 462 kts 269°
2026-05-06 02:59 22.30058 115.98947 30089 ft 461 kts 269°
2026-05-06 02:59 22.29966 115.95496 29497 ft 459 kts 269°
2026-05-06 02:59 22.29873 115.92063 28952 ft 456 kts 269°
2026-05-06 02:59 22.29781 115.88646 28434 ft 453 kts 269°
2026-05-06 03:00 22.29689 115.85265 27937 ft 450 kts 269°
2026-05-06 03:00 22.29597 115.81891 27433 ft 447 kts 269°
2026-05-06 03:00 22.29511 115.78591 26938 ft 445 kts 269°
2026-05-06 03:00 22.29423 115.75263 26446 ft 442 kts 268°
2026-05-06 03:01 22.29336 115.71959 25961 ft 439 kts 268°
2026-05-06 03:01 22.29247 115.68625 25476 ft 437 kts 268°
2026-05-06 03:01 22.29157 115.65407 25011 ft 434 kts 268°
2026-05-06 03:01 22.29068 115.62150 24514 ft 433 kts 268°
2026-05-06 03:02 22.28979 115.58864 23981 ft 432 kts 268°
2026-05-06 03:02 22.28891 115.55622 23467 ft 431 kts 268°
2026-05-06 03:02 22.28802 115.52401 22969 ft 427 kts 268°
2026-05-06 03:02 22.28713 115.49217 22577 ft 421 kts 268°
2026-05-06 03:03 22.28624 115.46076 22128 ft 416 kts 268°
2026-05-06 03:03 22.28536 115.42966 21685 ft 412 kts 268°
2026-05-06 03:03 22.28448 115.39889 21217 ft 409 kts 268°
2026-05-06 03:03 22.28360 115.36839 20772 ft 405 kts 268°
2026-05-06 03:04 22.28272 115.33814 20308 ft 402 kts 268°
2026-05-06 03:04 22.28188 115.30866 19790 ft 392 kts 268°
2026-05-06 03:04 22.28099 115.27950 18826 ft 386 kts 268°
2026-05-06 03:04 22.28009 115.25071 17820 ft 381 kts 268°
2026-05-06 03:05 22.27921 115.22234 16771 ft 375 kts 268°
2026-05-06 03:05 22.27834 115.19441 15754 ft 370 kts 268°
2026-05-06 03:05 22.27748 115.16688 14789 ft 364 kts 268°
2026-05-06 03:05 22.27664 115.13981 13843 ft 358 kts 268°
2026-05-06 03:06 22.27580 115.11316 12779 ft 353 kts 268°
2026-05-06 03:06 22.27497 115.08684 11738 ft 348 kts 268°
2026-05-06 03:06 22.27413 115.06037 10861 ft 357 kts 268°
2026-05-06 03:06 22.27327 115.03355 10309 ft 356 kts 268°
2026-05-06 03:07 22.27243 115.00715 10060 ft 345 kts 268°
2026-05-06 03:07 22.27160 114.98165 10011 ft 337 kts 268°
2026-05-06 03:07 22.27078 114.95636 10003 ft 338 kts 268°
2026-05-06 03:07 22.26996 114.93113 9996 ft 330 kts 268°
2026-05-06 03:08 22.26920 114.90696 10012 ft 322 kts 268°
2026-05-06 03:08 22.26840 114.88232 9992 ft 330 kts 268°
2026-05-06 03:08 22.26759 114.85814 10000 ft 313 kts 268°
2026-05-06 03:08 22.26680 114.83490 9987 ft 311 kts 268°
2026-05-06 03:09 22.26596 114.81142 9964 ft 314 kts 267°
2026-05-06 03:09 22.26235 114.78864 9960 ft 304 kts 251°
2026-05-06 03:09 22.25238 114.76894 9974 ft 303 kts 233°
2026-05-06 03:09 22.23754 114.75205 9957 ft 316 kts 225°
2026-05-06 03:10 22.22175 114.73608 9956 ft 302 kts 225°
2026-05-06 03:10 22.20675 114.72096 9969 ft 296 kts 225°
2026-05-06 03:10 22.19162 114.70556 9955 ft 294 kts 225°
2026-05-06 03:10 22.17705 114.69069 9964 ft 285 kts 226°
2026-05-06 03:11 22.16265 114.67596 9962 ft 284 kts 226°
2026-05-06 03:11 22.14853 114.66147 9959 ft 284 kts 226°
2026-05-06 03:11 22.13422 114.64678 9912 ft 282 kts 226°
2026-05-06 03:11 22.12014 114.63234 9550 ft 280 kts 225°
2026-05-06 03:12 22.10600 114.61782 9100 ft 281 kts 225°
2026-05-06 03:12 22.09189 114.60334 8758 ft 279 kts 225°
2026-05-06 03:12 22.07787 114.58897 8400 ft 277 kts 225°
2026-05-06 03:12 22.06398 114.57473 8035 ft 275 kts 225°
2026-05-06 03:13 22.05016 114.56055 7706 ft 273 kts 224°
2026-05-06 03:13 22.03643 114.54649 7319 ft 272 kts 224°
2026-05-06 03:13 22.02375 114.53144 6930 ft 272 kts 235°
2026-05-06 03:13 22.01505 114.51344 6559 ft 271 kts 245°
2026-05-06 03:14 22.00788 114.49465 6164 ft 271 kts 246°
2026-05-06 03:14 22.00083 114.47579 5759 ft 272 kts 246°
2026-05-06 03:14 21.99374 114.45697 5383 ft 271 kts 246°
2026-05-06 03:14 21.98663 114.43823 5020 ft 270 kts 245°
2026-05-06 03:15 21.97950 114.41953 4666 ft 269 kts 245°
2026-05-06 03:15 21.97237 114.40088 4223 ft 271 kts 245°
2026-05-06 03:15 21.96514 114.38206 3836 ft 272 kts 245°
2026-05-06 03:15 21.95793 114.36325 3454 ft 272 kts 245°
2026-05-06 03:16 21.95075 114.34446 3103 ft 272 kts 245°
2026-05-06 03:16 21.94350 114.32558 2970 ft 273 kts 245°
2026-05-06 03:16 21.93624 114.30666 2953 ft 274 kts 245°
2026-05-06 03:16 21.92897 114.28771 2959 ft 274 kts 245°
2026-05-06 03:17 21.92166 114.26872 2954 ft 274 kts 245°
2026-05-06 03:17 21.91436 114.24976 2960 ft 274 kts 245°
2026-05-06 03:17 21.90708 114.23081 2955 ft 274 kts 245°
2026-05-06 03:17 21.89997 114.21179 2956 ft 274 kts 248°
2026-05-06 03:18 21.89690 114.19158 2956 ft 278 kts 272°
2026-05-06 03:18 21.90223 114.17168 2959 ft 279 kts 296°
2026-05-06 03:18 21.91153 114.15335 2954 ft 279 kts 300°
2026-05-06 03:18 21.92113 114.13542 2955 ft 280 kts 300°
2026-05-06 03:19 21.93078 114.11723 2954 ft 279 kts 300°
2026-05-06 03:19 21.94035 114.09899 2960 ft 280 kts 300°
2026-05-06 03:19 21.94985 114.08076 2957 ft 279 kts 300°
2026-05-06 03:19 21.95932 114.06252 2957 ft 279 kts 300°
2026-05-06 03:20 21.97823 114.02598 2960 ft 279 kts 299°
2026-05-06 03:20 21.98765 114.00774 2956 ft 278 kts 300°
2026-05-06 03:20 21.99708 113.98949 2960 ft 279 kts 299°
2026-05-06 03:21 22.00651 113.97123 2956 ft 278 kts 299°
2026-05-06 03:21 22.01588 113.95304 2958 ft 277 kts 299°
2026-05-06 03:21 22.02525 113.93488 2954 ft 278 kts 299°
2026-05-06 03:21 22.03461 113.91671 2956 ft 277 kts 298°
2026-05-06 03:22 22.04397 113.89851 2955 ft 278 kts 298°
2026-05-06 03:22 22.05336 113.88025 2958 ft 278 kts 299°
2026-05-06 03:22 22.06275 113.86205 2958 ft 278 kts 299°
2026-05-06 03:22 22.07212 113.84383 2954 ft 278 kts 298°
2026-05-06 03:23 22.08149 113.82561 2956 ft 278 kts 298°
2026-05-06 03:23 22.09079 113.80750 2953 ft 277 kts 299°
2026-05-06 03:23 22.10025 113.78937 2987 ft 278 kts 300°
2026-05-06 03:23 22.11281 113.77370 3002 ft 276 kts 325°
2026-05-06 03:24 22.12894 113.76406 3011 ft 256 kts 336°
2026-05-06 03:24 22.14459 113.75644 3016 ft 238 kts 337°
2026-05-06 03:24 22.15907 113.74944 3042 ft 217 kts 337°
2026-05-06 03:24 22.17243 113.74292 3036 ft 208 kts 337°
2026-05-06 03:25 22.18561 113.73645 3011 ft 209 kts 337°
2026-05-06 03:25 22.19886 113.72993 3015 ft 210 kts 337°
2026-05-06 03:25 22.21283 113.72610 3004 ft 207 kts
2026-05-06 03:25 22.22588 113.73089 3028 ft 194 kts 34°
2026-05-06 03:26 22.23716 113.73867 3009 ft 192 kts 37°
2026-05-06 03:26 22.24805 113.74658 3013 ft 191 kts 37°
2026-05-06 03:26 22.25919 113.75477 3008 ft 191 kts 39°
2026-05-06 03:26 22.26777 113.76521 3004 ft 186 kts 57°
2026-05-06 03:27 22.27274 113.77799 3004 ft 186 kts 77°
2026-05-06 03:27 22.27631 113.79121 2776 ft 183 kts 74°
2026-05-06 03:27 22.28069 113.80406 2466 ft 176 kts 72°
2026-05-06 03:27 22.28459 113.81597 2170 ft 162 kts 72°
2026-05-06 03:28 22.28819 113.82726 1758 ft 157 kts 73°
2026-05-06 03:28 22.29179 113.83850 1351 ft 160 kts 74°
2026-05-06 03:28 22.29539 113.84969 1024 ft 157 kts 73°
2026-05-06 03:28 22.29887 113.86066 820 ft 149 kts 71°
2026-05-06 03:29 22.30232 113.87091 629 ft 143 kts 73°
2026-05-06 03:29 22.30556 113.88105 416 ft 142 kts 71°
2026-05-06 03:29 22.30882 113.89128 252 ft 146 kts 71°
2026-05-06 03:29 22.31211 113.90143 65 ft 139 kts 72°
2026-05-06 03:30 22.31499 113.91049 45 ft 92 kts 71°
2026-05-06 03:30 22.31613 113.91400 45 ft 36 kts 71°
2026-05-06 03:30 22.31661 113.91581 44 ft 20 kts 87°
2026-05-06 03:30 22.31647 113.91734 42 ft 21 kts 98°
2026-05-06 03:31 22.31622 113.91892 42 ft 22 kts 99°
2026-05-06 03:31 22.31637 113.92050 42 ft 22 kts 70°
2026-05-06 03:31 22.31688 113.92206 42 ft 22 kts 70°
2026-05-06 03:31 22.31740 113.92366 43 ft 23 kts 71°
2026-05-06 03:32 22.31793 113.92531 42 ft 23 kts 71°
2026-05-06 03:32 22.31846 113.92695 43 ft 23 kts 71°
2026-05-06 03:32 22.31890 113.92860 43 ft 18 kts 96°
2026-05-06 03:32 22.31843 113.92971 43 ft 16 kts 81°
2026-05-06 03:33 22.31877 113.93090 43 ft 16 kts 89°
2026-05-06 03:33 22.31825 113.93134 43 ft 9 kts 164°
2026-05-06 03:33 22.31762 113.93157 43 ft 10 kts 160°
2026-05-06 03:33 22.31690 113.93185 43 ft 11 kts 160°
2026-05-06 03:34 22.31639 113.93203 43 ft 7 kts 158°
2026-05-06 03:34 22.31619 113.93237 43 ft 6 kts 111°
2026-05-06 03:34 22.31611 113.93266 43 ft 7 kts 105°
2026-05-06 03:34 22.31608 113.93280 43 ft 0 kts 106°